Regional Weather Roundup
Issued by NWS

Home | Current Version | Previous Version | Text Only | Print | Product List | Glossary On
Versions: 1 2 3 4 5 6 7 8 9 10 11 12 13 14 15 16 17 18 19 20 21 22 23 24 25 26 27 28 29 30 31 32 33 34 35 36 37 38 39 40 41 42 43 44 45 46 47 48 49 50
000
ASUS43 KBIS 230920
RWRND

NORTH DAKOTA REGIONAL WEATHER ROUNDUP
NATIONAL WEATHER SERVICE BISMARCK ND
400 AM CDT SAT MAY 23 2015

NOTE: "FAIR" INDICATES FEW OR NO CLOUDS BELOW 12,000 FEET WITH NO
SIGNIFICANT WEATHER AND/OR OBSTRUCTIONS TO VISIBILITY.


NDZ001>003-009>011-017-231000-
NORTHWEST NORTH DAKOTA

CITY           SKY/WX    TMP DP  RH WIND       PRES   REMARKS
WILLISTON      CLEAR     50  38  63 CALM      30.10S
MINOT          CLOUDY    57  39  51 SW9       30.10S
MINOT AFB      CLOUDY    58  41  53 W9        30.09S
$$

NDZ018>021-031>035-040>046-231000-
SOUTHWEST NORTH DAKOTA

CITY           SKY/WX    TMP DP  RH WIND       PRES   REMARKS
BISMARCK       PTCLDY    45  40  82 SE6       30.16R
DICKINSON      PTCLDY    40  35  83 E9        30.08S
GARRISON         N/A     46  40  79 NE3       30.12S
HETTINGER ARPT PTCLDY    42  38  85 E8        30.10S
$$

NDZ004>008-012>016-024-026-027-054-231000-
NORTHEAST NORTH DAKOTA

CITY           SKY/WX    TMP DP  RH WIND       PRES   REMARKS
GRAND FORKS    CLEAR     46  40  79 S7        30.13S
GRND FRKS AFB  CLEAR     51  40  65 SE3       30.13S
DEVILS LAKE    CLEAR     54  37  54 CALM      30.12S
$$

NDZ022-023-025-028>030-036>039-047>053-231000-
SOUTHEAST NORTH DAKOTA

CITY           SKY/WX    TMP DP  RH WIND       PRES   REMARKS
FARGO          CLEAR     53  44  71 S9        30.15S
JAMESTOWN      MOCLDY    53  43  68 SW9       30.15R
$$




USA.gov is the U.S. government's official web portal to all federal, state and local government web resources and services.